www.pogodaiklimat.ru

Погода и климат >> Архив погоды >> Мексика >> Acapulco


АРХИВ ПОГОДЫ в Acapulco

Время (UTC), дата Ветер
(напр.,м/с)
 
Видим.   Явления Облачность Т
(С)
Тd
(С)
f
(%)
Тe
(С)
Тes
(С)
Комфортность P
(гПа)
Po
(гПа)
Тmin
(С)
Tmax
(С)
R
(мм)
R24
(мм)
S
(см)
18 11.10 Ю 3 20 км 5/4 870 м
[Cu med, cong Cs]
+33.0 +25.6 65 +48 +56 опасность
перегрева
1012.7 1012.5 +24.3 +33.9
21 11.10 З 4 20 км 5/3 840 м
[Cu Sc Ac und Cs]
+32.8 +24.9 63 +46 +51 опасность
перегрева
1010.2 1009.7
00 12.10 З 4 20 км 9/5 600 м
[Cu med, cong Ac und Cs]
+31.4 +25.6 71 +46 +46 опасность
перегрева
1010.0 1009.5 +24.3 +34.4
03 12.10 Ю 2 9000 м морось {гроза} 10/6 840 м
[Frnb As op]
+25.2 +24.3 95 +35 +35 очень
душно
1012.7 1012.4 3
06 12.10 ЮВ 3 10 км в посл. час морось {дождь} 8/4 600 м
[Cu med, cong As op]
+25.0 +24.3 96 +35 +35 очень
душно
1013.0 1012.7 10
09 12.10 СЗ 1 10 км 6/4 840 м
[Cu med, cong Ac und]
+25.0 +23.9 94 +34 +34 очень
душно
1011.3 1010.9
12 12.10 С 1 12 км 9/4 840 м
[Sc Ac As]
+24.9 +23.9 94 +34 +34 очень
душно
1011.3 1011.1 +24.5 +34.4
15 12.10 В 3 20 км 9/5 840 м
[Cu Sc Ac und]
+28.1 +24.5 81 +40 +41 очень
душно
1012.3 1011.8
18 12.10 ЮВ 4 20 км 9/6 840 м
[Cu Sc Ac und]
+30.8 +24.6 70 +44 +46 опасность
перегрева
1011.8 1011.5 +24.5 +32.2
21 12.10 ЮВ 4 20 км 9/8 900 м
[Cu Sc Ac und]
+30.9 +24.4 68 +43 +44 опасность
перегрева
1009.5 1009.1
00 13.10 В 3 20 км {морось} 10/9 600 м
[Cu Sc Ac trans]
+27.0 +25.6 92 +40 +40 очень
душно
1010.0 1009.4 4
03 13.10 ЮВ 3 15 км 10/10 900 м
[Cu Sc]
+25.7 +24.4 93 +36 +36 очень
душно
1012.0 1011.5
06 13.10 ЮВ 4 15 км {морось} 10/10 600 м
[Cu Sc]
+25.1 +24.5 96 +35 +35 очень
душно
1012.0 1011.6 4
09 13.10 СВ 2 10 км 10/10 840 м
[Cu Sc]
+25.2 +23.8 92 +34 +34 очень
душно
1010.6 1010.2
12 13.10 В 2 10 км 10/10 840 м
[Cu Sc]
+25.4 +23.7 90 +35 +35 очень
душно
1010.9 1010.4 +24.8 +32.6
15 13.10 ЮВ 4 18 км слабый дождь 10/10 750 м
[Cu Sc]
+24.6 +24.0 96 +34 +34 очень
душно
1012.7 1012.3 23
18 13.10 ЮВ 3 18 км слабая морось {дождь} 10/10 600 м
[Cu Sc]
+26.5 +25.5 94 +39 +39 очень
душно
1012.0 1011.6 27
00 14.10 Ю 1 19 км 6/4 600 м
[Cu med, cong Ac und]
+28.3 +25.1 83 +41 +41 опасность
перегрева
1010.2 1009.9 +24.8 +31.2
03 14.10 Ю 1 9000 м слабый дождь {морось} 10/6 800 м
[Frnb As op]
+26.1 +25.1 94 +37 +37 очень
душно
1012.3 1011.9 4
06 14.10 Ю 2 9000 м слабая морось {дождь} 10/5 600 м
[Sc As op]
+25.0 +24.4 96 +35 +35 очень
душно
1012.5 1012.1 5
09 14.10 Ю 2 8000 м слабая морось 9/9 750 м
[Cu Sc]
+24.2 +23.9 98 +33 +33 очень
душно
1010.2 1010.9 3
12 14.10 ЮВ 2 10 км 9/9 600 м
[Cu Sc]
+24.2 +23.6 96 +33 +33 очень
душно
1010.4 1010.4 4
15 14.10 Ю 2 10 км 9/9 700 м
[Cu Sc]
+27.5 +25.1 87 +40 +40 очень
душно
1012.7 1012.4
18 14.10 ЮЗ 2 20 км 8/8 660 м
[Cu Sc]
+30.2 +26.9 83 +47 +51 опасность
перегрева
1012.1 1012.0 +24.0 +31.5
21 14.10 З 2 20 км 5/5 720 м
[Cu Sc]
+31.8 +26.9 75 +49 +55 опасность
перегрева
1011.6 1011.2
00 15.10 СЗ 2 20 км 4/4 600 м
[Cu med, cong]
+30.4 +25.1 73 +44 +44 опасность
перегрева
1010.4 1009.9 +24.0 +32.5
03 15.10 С 2 15 км {дождь} 6/6 900 м
[Cu Sc]
+25.9 +24.6 93 +37 +37 очень
душно
1012.3 1011.9 6
06 15.10 СВ 1 15 км 6/6 900 м
[Cu med, cong]
+25.0 +24.4 96 +35 +35 очень
душно
1012.5 1012.0 +32.5 7
09 15.10 СВ 1 10 км 3/3 840 м
[Cu med, cong]
+25.1 +24.5 96 +35 +35 очень
душно
1009.7 1009.3
12 15.10 С 1 10 км 3/3 840 м
[Cu Sc]
+24.4 +23.5 95 +33 +33 очень
душно
1010.0 1009.5 +23.8 +32.5
15 15.10 СВ 2 20 км 5/1 900 м
[Cu med, cong Ac trans Cs]
+27.7 +24.4 82 +39 +43 очень
душно
1011.4 1011.1
18 15.10 ЮЗ 2 20 км 4/1 900 м
[Cu med, cong Cs]
+32.3 +25.5 67 +47 +61 опасность
перегрева
1011.1 1010.8 +23.8 +33.2
21 15.10 ЮЗ 3 20 км 4/3 870 м
[Cu med, cong Cs]
+32.5 +25.7 67 +47 +54 опасность
перегрева
1009.0 1008.6
00 16.10 ЮЗ 2 20 км 4/3 600 м
[Cu med, cong Cs]
+30.5 +25.3 74 +44 +45 опасность
перегрева
1009.3 1008.9 +23.8 +33.4
03 16.10 З 1 10 км 5/3 900 м
[Cu hum Ac trans]
+27.6 +25.1 86 +40 +40 очень
душно
1010.6 1010.1
06 16.10 СВ 1 10 км 3/1 600 м
[Cu hum Ac trans]
+26.4 +25.3 94 +38 +38 очень
душно
1010.9 1010.4 +23.8 +33.4
09 16.10 С 1 10 км 4/4 900 м
[Cu hum]
+25.8 +24.7 94 +37 +37 очень
душно
1009.7 1009.3
12 16.10 15 км н/о +25.4 +24.3 94 +35 +35 очень
душно
1009.0 1008.7 +24.9 +33.4
15 16.10 В 1 20 км 6/0
[Cs]
+28.9 +25.4 81 +42 +48 опасность
перегрева
1010.0 1009.6
18 16.10 З 3 20 км 6/1 900 м
[Cu med, cong Ac und Cs]
+32.1 +25.2 67 +46 +55 опасность
перегрева
1009.5 1009.1 +24.9 +32.9
21 16.10 Ю 2 20 км 5/3 900 м
[Cu med, cong Ac und]
+32.4 +25.1 65 +46 +52 опасность
перегрева
1008.1 1007.8
00 17.10 З 2 20 км 9/3 600 м
[Cu med, cong Ac und Cs]
+30.9 +25.6 73 +45 +45 опасность
перегрева
1008.8 1008.4 +24.9 +33.5
03 17.10 СЗ 2 10 км 10/5 800 м
[Cu med, cong Ac und]
+28.0 +25.5 86 +41 +41 опасность
перегрева
1010.9 1010.5
06 17.10 С 2 10 км слабая морось 10/10 600 м
[Cu Sc]
+25.4 +24.5 95 +36 +36 очень
душно
1011.3 1011.0 1
09 17.10 С 2 10 км 6/4 870 м
[Cu med, cong Ac trans]
+25.0 +24.4 96 +35 +35 очень
душно
1008.1 1007.8
12 17.10 С 1 10 км 5/3 600 м
[Cu med, cong Ac trans]
+24.7 +24.4 98 +34 +34 очень
душно
1008.8 1008.5 0.5
15 17.10 В 1 20 км 6/3 900 м
[Cu hum Ac trans]
+27.8 +25.0 85 +40 +43 очень
душно
1010.4 1009.9
18 17.10 З 2 20 км 6/3 900 м
[Cu med, cong Ac trans]
+32.0 +23.7 62 +43 +52 опасность
перегрева
1009.7 1009.2 +24.0 +33.1
21 17.10 ЮЗ 3 20 км 9/4 900 м
[Cu med, cong Ac trans]
+33.2 +25.4 64 +48 +51 опасность
перегрева
1007.2 1006.8
00 18.10 З 2 20 км 9/9 600 м
[Cu Sc]
+30.2 +25.4 76 +44 +44 опасность
перегрева
1007.9 1007.4 +24.0 +34.0
03 18.10 ЮЗ 2 8000 м 9/9 750 м
[Cu Sc]
+28.0 +25.5 86 +41 +41 опасность
перегрева
1010.9 1010.5 5
09 18.10 В 2 10 км 6/6 750 м
[Cu Sc]
+25.8 +24.8 94 +37 +37 очень
душно
1011.1 1010.7
12 18.10 ЮВ 2 10 км 9/9 800 м
[Cu Sc]
+25.4 +24.6 95 +36 +36 очень
душно
1010.9 1010.4 +23.8 +34.0

 

Местоположение метеостанции Acapulco (Мексика): широта 16.83 долгота -99.93 высота над уровнем моря 3 м.

В архиве по умолчанию представлена погода в Acapulco за последнюю неделю. Архивные данные за месяц целиком и за предыдущие месяцы, начиная с января 2011 года, Вы можете получить, выбрав интересующий диапазон дат из раскрывающегося списка и нажав кнопку "Ввод!".


*Определитесь, кто Вы:
робот инопланетянин человек

Внимание! Время в таблицах - всемирное. Для получения местного времени необходимо прибавить поправку, которая в Acapulco равна -6 ч.

Смотрите также архив погоды в соседних городах и на ближайших метеорологических станциях:

Погода в Chilpancingo (Мексика) (92 км)
Погода в Zacatepec (Мексика) (223 км)
Погода в Cuernavaca (Мексика) (240 км)
Погода в Huajuapan De Leon (Мексика) (253 км)
Погода в Toluca (Мексика) (274 км)
Погода в Institute of Geography (Мексика) (288 км)
Погода в Mexico City (Мексика) (297 км)
Погода в Puebla (Мексика) (310 км)
Погода в Tlaxcala Airport (Мексика) (329 км)
Погода в Tlaxcala (Мексика) (329 км)

Пояснения к столбцам:

Ветер - указаны скорость ветра в м/с - средняя за 10 мин, порывы в срок и между сроками (в фигурных скобках) и направление, откуда дует ветер: С - северный, СВ - северо-восточный, В - восточный, ЮВ - юго-восточный, Ю - южный, ЮЗ - юго-западный, З - западный, СЗ - северо-западный.
Видимость - горизонтальная дальность видимости в метрах или километрах. При видимости от 1 до 10 км при отсутствии осадков обычно наблюдается дымка, при ухудшении видимости до 1 км и менее - туман. В сухую погоду видимость может ухудшаться дымом, пылью или мглою.
Явления - указаны атмосферные явления, наблюдавшиеся в срок или в последний час перед сроком; фигурными скобками обозначены явления, наблюдавшиеся между сроками (за 1-3 часа до срока); квадратными скобками обозначены град или гололедные отложения с указанием их диаметра в мм.
Облачность - указаны через наклонную черту общая и нижняя облачность в баллах и высота нижней границы облаков в метрах; квадратными скобками обозначены формы облаков: Ci - перистые, Cs - перисто-слоистые, Cc - перисто-кучевые, Ac - высококучевые, As - высокослоистые, Sc - слоисто-кучевые, Ns - слоисто-дождевые, Cu - кучевые, Cb - кучево-дождевые. Подробнее классификацию облаков см. в Атласе облаков (PDF).
T - Температура воздуха - температура, измеренная на высоте 2 м над землей.
Td - Температура точки росы - температура, при понижении до которой содержащийся в воздухе водяной пар достигнет насыщения.
f - Относительная влажность воздуха - влажноcть воздуха, измеренная на высоте 2 м над землей.
Te - Эффективная температура - температура, которую ощущает одетый по сезону человек в тени. Характеристика душности погоды. При расчете учитывается влияние влажности воздуха и скорости ветра на теплоощущения человека.
Tes - Эффективная температура на солнце - температура, которую ощущает человек, с поправкой на солнечный нагрев. Характеристика знойности погоды. Зависит от высоты солнца над горизонтом, облачности и скорости ветра. Ночью, в пасмурную погоду, а также при ветре 12 м/с и более поправка равна нулю.
P - Атмосферное давление - приведенное к уровню моря атмосферное давление.
Po - Атмосферное давление - измеренное на уровне метеостанции атмосферное давление.
Tmin - Минимальная температура - минимум температуры воздуха на высоте 2 м над землей.
Tmax - Максимальная температура - максимум температуры воздуха на высоте 2 м над землей.
R - Количество осадков - Количество выпавших осадков за период времени, мм. При наведении курсора мыши на число - период времени, за который выпало указанное количество осадков.
R24 - Количество осадков - Количество выпавших осадков за 24 часа, мм.
S - Снежный покров - Высота снежного покрова, см. При наведении курсора мыши на число - состояние снежного покрова и степень покрытия местности в баллах.